4XCDE LLHZ-LLHZ

Flight info

Callsign 4XCDE
Flight time 0h 25m
Altitude 800
Route LLHZ SFAIM APOLN ARENA HTZUK RIDNG CLORE TYONA CLORE RIDNG HTZUK KNTRY
Aircraft C172/L-V/N

Departure

Time 2026-04-18 19:24
Airport Herzliya Airport (LLHZ)

Arrival

Time 2026-04-18 19:50
Airport Herzliya Airport (LLHZ)
Time Latitude Longitude Altitude Speed Heading
2026-04-18 19:09 32.18218 34.82802 95 ft 0 kts 110°
2026-04-18 19:12 32.18219 34.82802 95 ft 0 kts 110°
2026-04-18 19:14 32.18219 34.82801 95 ft 0 kts 110°
2026-04-18 19:17 32.18218 34.82802 95 ft 0 kts 110°
2026-04-18 19:20 32.18217 34.82806 95 ft 6 kts 110°
2026-04-18 19:20 32.18180 34.82880 95 ft 13 kts 109°
2026-04-18 19:20 32.18151 34.82976 96 ft 11 kts 112°
2026-04-18 19:21 32.18105 34.83083 98 ft 19 kts 117°
2026-04-18 19:21 32.18067 34.83211 101 ft 15 kts 111°
2026-04-18 19:21 32.18037 34.83318 103 ft 15 kts 106°
2026-04-18 19:21 32.17999 34.83449 107 ft 17 kts 109°
2026-04-18 19:22 32.17963 34.83565 108 ft 14 kts 110°
2026-04-18 19:22 32.17919 34.83710 116 ft 22 kts 108°
2026-04-18 19:22 32.17879 34.83843 121 ft 10 kts 96°
2026-04-18 19:22 32.17879 34.83851 121 ft 0 kts 72°
2026-04-18 19:23 32.17879 34.83850 121 ft 0 kts 72°
2026-04-18 19:23 32.17895 34.83863 122 ft 11 kts 13°
2026-04-18 19:23 32.17978 34.83636 112 ft 58 kts 287°
2026-04-18 19:24 32.18114 34.83163 297 ft 61 kts 279°
2026-04-18 19:24 32.18440 34.82791 448 ft 78 kts 350°
2026-04-18 19:24 32.19033 34.82965 560 ft 93 kts
2026-04-18 19:24 32.19647 34.83112 820 ft 87 kts 357°
2026-04-18 19:25 32.20207 34.82954 989 ft 85 kts 319°
2026-04-18 19:25 32.20595 34.82428 1162 ft 82 kts 299°
2026-04-18 19:25 32.20879 34.81850 1226 ft 84 kts 287°
2026-04-18 19:25 32.20695 34.81227 1183 ft 91 kts 223°
2026-04-18 19:26 32.20162 34.80852 1203 ft 91 kts 212°
2026-04-18 19:26 32.19585 34.80548 1128 ft 92 kts 206°
2026-04-18 19:26 32.19002 34.80272 1186 ft 88 kts 205°
2026-04-18 19:26 32.18410 34.80020 1178 ft 92 kts 202°
2026-04-18 19:27 32.17805 34.79756 1162 ft 94 kts 205°
2026-04-18 19:27 32.17185 34.79523 1164 ft 94 kts 201°
2026-04-18 19:27 32.16575 34.79254 1159 ft 93 kts 206°
2026-04-18 19:27 32.15952 34.79003 1126 ft 98 kts 200°
2026-04-18 19:28 32.15337 34.78739 1206 ft 89 kts 209°
2026-04-18 19:28 32.14803 34.78355 1210 ft 92 kts 214°
2026-04-18 19:28 32.14230 34.78017 1249 ft 93 kts 207°
2026-04-18 19:28 32.13628 34.77749 1249 ft 91 kts 204°
2026-04-18 19:29 32.13024 34.77486 1189 ft 96 kts 203°
2026-04-18 19:29 32.12370 34.77263 1187 ft 99 kts 199°
2026-04-18 19:29 32.11702 34.77063 1217 ft 98 kts 202°
2026-04-18 19:29 32.11048 34.76801 1186 ft 101 kts 202°
2026-04-18 19:30 32.10378 34.76563 1185 ft 100 kts 199°
2026-04-18 19:30 32.09726 34.76335 1209 ft 96 kts 201°
2026-04-18 19:30 32.09086 34.76093 1217 ft 97 kts 200°
2026-04-18 19:30 32.08456 34.75847 1236 ft 94 kts 205°
2026-04-18 19:31 32.07876 34.75508 1225 ft 97 kts 211°
2026-04-18 19:31 32.07291 34.75151 1252 ft 95 kts 210°
2026-04-18 19:31 32.06679 34.74804 1229 ft 99 kts 207°
2026-04-18 19:31 32.06069 34.74482 1273 ft 96 kts 209°
2026-04-18 19:32 32.05439 34.74109 1157 ft 104 kts 210°
2026-04-18 19:32 32.04795 34.73778 1215 ft 99 kts 200°
2026-04-18 19:32 32.04154 34.73572 1198 ft 96 kts 199°
2026-04-18 19:32 32.03486 34.73396 1094 ft 102 kts 192°
2026-04-18 19:33 32.02787 34.73278 1055 ft 99 kts 192°
2026-04-18 19:33 32.02115 34.73182 1102 ft 94 kts 192°
2026-04-18 19:33 32.01448 34.73113 1093 ft 100 kts 178°
2026-04-18 19:33 32.00779 34.73162 1182 ft 91 kts 197°
2026-04-18 19:34 32.00433 34.72671 1253 ft 88 kts 272°
2026-04-18 19:34 32.00882 34.72175 1257 ft 103 kts 350°
2026-04-18 19:34 32.01599 34.72397 1223 ft 112 kts 14°
2026-04-18 19:34 32.02353 34.72665 1135 ft 116 kts 13°
2026-04-18 19:35 32.03139 34.72932 1038 ft 118 kts 10°
2026-04-18 19:35 32.03924 34.73124 1041 ft 110 kts
2026-04-18 19:35 32.04649 34.73284 1097 ft 105 kts
2026-04-18 19:35 32.05348 34.73415 1183 ft 100 kts
2026-04-18 19:36 32.06038 34.73654 1190 ft 107 kts 19°
2026-04-18 19:36 32.06719 34.74022 1191 ft 109 kts 21°
2026-04-18 19:36 32.07416 34.74398 1194 ft 111 kts 20°
2026-04-18 19:36 32.08112 34.74773 1194 ft 110 kts 20°
2026-04-18 19:37 32.08807 34.75146 1197 ft 110 kts 20°
2026-04-18 19:37 32.09499 34.75517 1200 ft 108 kts 20°
2026-04-18 19:37 32.10191 34.75882 1197 ft 110 kts 20°
2026-04-18 19:37 32.10889 34.76246 1197 ft 109 kts 21°
2026-04-18 19:38 32.11318 34.76943 1191 ft 112 kts 91°
2026-04-18 19:38 32.10899 34.77609 1192 ft 105 kts 170°
2026-04-18 19:38 32.10233 34.77416 1199 ft 99 kts 208°
2026-04-18 19:38 32.09605 34.77087 1205 ft 99 kts 207°
2026-04-18 19:39 32.08981 34.76758 1211 ft 97 kts 207°
2026-04-18 19:39 32.08364 34.76418 1205 ft 98 kts 208°
2026-04-18 19:39 32.07737 34.76090 1204 ft 98 kts 207°
2026-04-18 19:39 32.07323 34.75873 1208 ft 98 kts 207°
2026-04-18 19:40 32.06494 34.75436 1202 ft 99 kts 207°
2026-04-18 19:40 32.06077 34.75220 1208 ft 98 kts 206°
2026-04-18 19:40 32.05448 34.74887 1206 ft 99 kts 207°
2026-04-18 19:40 32.04815 34.74562 1207 ft 99 kts 206°
2026-04-18 19:41 32.04179 34.74224 1210 ft 102 kts 207°
2026-04-18 19:41 32.03768 34.73646 1191 ft 96 kts 269°
2026-04-18 19:41 32.04098 34.72966 1188 ft 100 kts 318°
2026-04-18 19:41 32.05003 34.73115 1195 ft 109 kts 22°
2026-04-18 19:42 32.05468 34.73369 1201 ft 110 kts 20°
2026-04-18 19:42 32.06168 34.73736 1207 ft 110 kts 19°
2026-04-18 19:42 32.06866 34.74115 1204 ft 111 kts 20°
2026-04-18 19:42 32.07566 34.74488 1205 ft 111 kts 20°
2026-04-18 19:43 32.08265 34.74865 1202 ft 110 kts 20°
2026-04-18 19:43 32.08966 34.75239 1201 ft 110 kts 21°
2026-04-18 19:43 32.09658 34.75611 1201 ft 109 kts 21°
2026-04-18 19:43 32.10358 34.75973 1201 ft 110 kts 20°
2026-04-18 19:44 32.11056 34.76339 1204 ft 110 kts 20°
2026-04-18 19:44 32.11751 34.76710 1206 ft 110 kts 20°
2026-04-18 19:44 32.13150 34.77483 1204 ft 110 kts 20°
2026-04-18 19:45 32.13844 34.77858 1204 ft 110 kts 20°
2026-04-18 19:45 32.14544 34.78235 1209 ft 111 kts 28°
2026-04-18 19:45 32.14811 34.78981 1190 ft 101 kts 106°
2026-04-18 19:45 32.14587 34.79776 1059 ft 106 kts 110°
2026-04-18 19:46 32.14497 34.80621 1022 ft 104 kts 70°
2026-04-18 19:46 32.15015 34.81188 1067 ft 105 kts 18°
2026-04-18 19:46 32.15708 34.81490 1161 ft 108 kts 15°
2026-04-18 19:46 32.16405 34.81754 1155 ft 107 kts 14°
2026-04-18 19:47 32.17100 34.82046 1203 ft 105 kts 20°
2026-04-18 19:47 32.17765 34.82414 1219 ft 106 kts 19°
2026-04-18 19:47 32.18458 34.82743 1190 ft 109 kts 15°
2026-04-18 19:47 32.19114 34.83124 1194 ft 102 kts 56°
2026-04-18 19:48 32.19125 34.83926 1147 ft 107 kts 102°
2026-04-18 19:48 32.18975 34.84780 945 ft 101 kts 108°
2026-04-18 19:48 32.18676 34.85385 899 ft 67 kts 162°
2026-04-18 19:48 32.18220 34.85424 741 ft 70 kts 189°
2026-04-18 19:49 32.17763 34.85327 729 ft 61 kts 209°
2026-04-18 19:49 32.17613 34.84913 537 ft 66 kts 276°
2026-04-18 19:49 32.17758 34.84400 356 ft 64 kts 281°
2026-04-18 19:49 32.17896 34.83916 151 ft 57 kts 282°
2026-04-18 19:50 32.17998 34.83546 108 ft 40 kts 281°
2026-04-18 19:50 32.18074 34.83304 100 ft 29 kts 290°
2026-04-18 19:50 32.18137 34.83079 97 ft 13 kts 246°
2026-04-18 19:50 32.18121 34.83058 98 ft 0 kts 251°
2026-04-18 19:51 32.18120 34.83049 98 ft 6 kts 273°
2026-04-18 19:51 32.18155 34.82961 96 ft 13 kts 289°
2026-04-18 19:51 32.18182 34.82873 95 ft 10 kts 289°
2026-04-18 19:51 32.18208 34.82805 95 ft 8 kts 303°
2026-04-18 19:52 32.18218 34.82805 95 ft 0 kts 109°
2026-04-18 19:55 32.18218 34.82804 95 ft 0 kts 109°
2026-04-18 19:55 32.18219 34.82804 95 ft 0 kts 109°